{"data":{"norad_id":41774,"epoch":"2026-09-20T00:42:19.960416Z","epoch_age_seconds":54967,"freshness":"FRESH","line1":"1 41774U 16058E   26263.02939769  .00018567  00000+0  26423-3 0  9993","line2":"2 41774  96.8957 290.4487 0001634  79.6304 280.5137 15.56395662560843","mean_motion":15.56395662,"eccentricity":0.0001634,"inclination_deg":96.8957,"raan_deg":290.4487,"arg_perigee_deg":79.6304,"mean_anomaly_deg":280.5137,"bstar":0.00026423,"rev_number":56084,"period_min":92.521460651565,"perigee_km":396.99140728001,"apogee_km":399.20588108853,"semimajor_km":6776.2356441843,"source":"CELESTRAK","updated_at":"2026-09-20T09:00:34.707897Z"}}